星链-38063(STARLINK-38063)

导读

STARLINK-38063(NORAD编号69979)是美国太空探索技术公司(SpaceX)星链低轨互联网星座的成员卫星。该星座旨在构建全球覆盖的天基高速通信网络,卫星运行于600公里以下近地轨道,设计上具备全再入烧毁特性,故障后可在5年内自然离轨,无地面安全风险。 作为星链组网卫星之一,它承担全球偏远地区、移动场景的互联网接入服务支撑功能,目前该星座第三代卫星已启动研发,将进一步提升通信容量与频段覆盖范围。

基本信息
目录编号:
69979
目录名称:
STARLINK-38063
国际标识:
2026-159E
轨道中心:
EARTH
卫星名称:
星链-38063
卫星全名:
星链-38063(STARLINK-38063)
卫星状态:
在轨 (已飞行65 天)
发射日期:
2026-07-11 UTC
国别 :
美国 (US)
星等 :
--
该卫星已列入 空间交会检测服务 Space Conjunction Data Service (SCDS) ,当前飞行风险评估等级: 无高风险
轨道信息
数据来源 国际轨道数据
星历时间: 2026-09-14T06:00:02+0800
6小时前
查看轨道信息
半长轴: 6761.554km
偏心率: 0.000194
轨道倾角: 97.284°
近地点辐角 82.041°
升交点赤经 98.670°
平近点角 61.403°
近地点: 382.105km
远地点: 384.729km
周期: 92.221分钟
每日圈数: 15.614677
详细信息
固有亮度:
5
最大亮度:
2.5
卫星平台:
Starlink V1.0
覆盖范围:
全球
运营商:
太空探索技术公司
运营商所在国:
美国
制造商(研发单位):
太空探索技术公司
制造商所在国:
美国
使用方式:
暂无
卫星简介
Starlink 计划是 SpaceX 推出的全球卫星互联网项目,通过发射低轨道卫星,为全球尤其是偏远地区提供高速、低延迟的互联网服务。自 2019 年起,Starlink 已部署数千颗卫星,旨在缩小全球数字鸿沟,推动互联网普及。该项目还为军事、航空等行业提供通信支持,带来广泛经济效益。
2D轨道图
3D轨道图
轨道高度分析图
轨道倾角分析图
轨道综合分析图
查看轨道综合分析图
交会数据列表
事件ID 空间交会对象 最接近时刻(TCA) 交会距离 交会风险概率(CRP) 交会风险指数(CRI) 操作
CDM_260911-094904-614106-997921
2026-09-11T
09:49:36+0000
1.022 km
极远距离
1.665275E-5 中风险 0.59
CDM_260911-103504-614106-997921
2026-09-11T
10:35:17+0000
2.436 km
极远距离
1.301379E-6 低风险 0.37
与全量物体交会距离演化趋势 订阅飞行安全评估服务
与全量物体交会风险概率演化趋势 订阅飞行安全评估服务